Regional Weather Roundup
Issued by NWS

Home | Current Version | Previous Version | Graphics & Text | Print | Product List | Glossary On
Versions: 1 2 3 4 5 6 7 8 9 10 11 12 13 14 15 16 17 18 19 20 21 22 23 24 25 26 27 28 29 30 31 32 33 34 35 36 37 38 39 40 41 42 43 44 45 46 47 48 49 50
000
ASUS43 KLSX 250157
RWRMO

WEATHER SUMMARY FOR MISSOURI
NATIONAL WEATHER SERVICE SPRINGFIELD MO
900 PM CDT WED AUG 24 2016

NOTE: "FAIR" INDICATES FEW OR NO CLOUDS BELOW 12,000 FEET WITH NO
       SIGNIFICANT WEATHER AND/OR OBSTRUCTIONS TO VISIBILITY.
       CURRENT SKY AND/OR WEATHER CONDITIONS ARE NOT AVAILABLE FOR
       CHILLICOTHE AND FARMINGTON.

MOZ001>031-035>038-043-044-053-054-250300-
...NORTHERN AND WESTERN MISSOURI...

CITY           SKY/WX    TMP DP  RH WIND       PRES   REMARKS
KANSAS CTY INT TSTM      71  68  90 N6        30.03R FOG
KANSAS C DTWN  LGT RAIN  73  72  94 N7        29.98S
LEE`S SUMMIT   TSTM      73  70  90 E5        30.01S
ST JOSEPH      CLOUDY    70  66  87 N8        30.02R

$$
MOZ066>068-077>081-088>096-101>105-250300-
...SOUTHWEST MISSOURI...

CITY           SKY/WX    TMP DP  RH WIND       PRES   REMARKS
SPRINGFIELD    CLEAR     82  69  64 S14       30.04R
JOPLIN         CLEAR     84  69  60 S14       30.00R
BRANSON        CLEAR     79  72  78 S7        30.09R

$$
MOZ032>034-039>042-045>050-055>058-069>072-250300-
...CENTRAL MISSOURI...

CITY           SKY/WX    TMP DP  RH WIND       PRES   REMARKS
COLUMBIA       NOT AVBL
JEFFERSON CITY PTCLDY    80  76  87 SE5       29.98R
ROLLA          CLEAR     81  74  79 S10       30.02R
SEDALIA        PTCLDY    81  75  82 SE5       29.98R

$$
MOZ051-052-059>065-250300-
...EAST CENTRAL MISSOURI...

CITY           SKY/WX    TMP DP  RH WIND       PRES   REMARKS
ST LOUIS INTL  CLOUDY    87  74  64 S5        30.01R HX  95

$$
MOZ072>076-082>087-097>100-106>115-250300-
...SOUTH CENTRAL AND SOUTHEAST MISSOURI...

CITY           SKY/WX    TMP DP  RH WIND       PRES   REMARKS
CAPE GIRARDEAU CLEAR     81  75  82 S8        30.05R
POPLAR BLUFF   CLEAR     82  75  79 S9        30.05S
WEST PLAINS    CLEAR     81  70  69 S7        30.10R

$$



USA.gov is the U.S. government's official web portal to all federal, state and local government web resources and services.